Regional Weather Roundup
Issued by NWS Cleveland, OH

Home | Current Version | Previous Version | Graphics & Text | Print | Product List | Glossary On
Versions: 1 2 3 4 5 6 7 8 9 10 11 12 13 14 15 16 17 18 19 20 21 22 23 24 25 26 27 28 29 30 31 32 33 34 35 36 37 38 39 40 41 42 43 44 45 46 47 48 49 50
000
ASUS41 KCLE 031600
RWRCLE
OHIO REGIONAL WEATHER ROUNDUP
NATIONAL WEATHER SERVICE WILMINGTON, OH
1200 PM EDT MON AUG 03 2015

NOTE: "FAIR" INDICATES FEW OR NO CLOUDS BELOW 12,000 FEET WITH NO
SIGNIFICANT WEATHER AND/OR OBSTRUCTIONS TO VISIBILITY.

OHZ001>008-015>018-024>027-034-035-043-044-031700-
   NORTHWEST OHIO

CITY           SKY/WX    TMP DP  RH WIND       PRES   REMARKS
DEFIANCE       MOSUNNY   75  65  70 W7        29.83S
FINDLAY        PTSUNNY   77  66  68 W17       29.83R
TOLEDO EXPRESS SUNNY     73  64  73 W12       29.81S
TOLEDO EXEC    MOSUNNY   76  63  64 W12       29.82R
LIMA           CLOUDY    73  66  78 SW9       29.86R
$$

OHZ009>014-019>023-028>033-038-089-031700-
   NORTHEAST OHIO

CITY           SKY/WX    TMP DP  RH WIND       PRES   REMARKS
CLE-HOPKINS    MOSUNNY   75  61  61 W18       29.83R
CLE-LAKEFRONT  SUNNY     76  64  66 W15       29.80R
CUY CO. ARPT   PTSUNNY   77  64  65 W12G21    29.82R
LORAIN-ELYRIA  MOSUNNY   75  63  66 W13G21    29.83R
ASHTABULA      CLOUDY    74  61  63 W13G23    29.82R
AKRON-CANTON   MOSUNNY   80  59  48 W16G24    29.82S
WOOSTER        NOT AVBL
MANSFIELD      PTSUNNY   76  63  64 SW18G29   29.85R
YOUNGSTOWN     MOSUNNY   76  60  57 SW8       29.83R
$$

OHZ042-051>053-060>062-070>072-077>081-031700-
  SOUTHWEST OHIO

CITY           SKY/WX    TMP DP  RH WIND       PRES   REMARKS
CINC-COVINGTON SUNNY     78  64  61 S18G26    29.89
CINC-LUNKEN    SUNNY     77  66  68 S14       29.88F
HAMILTON       SUNNY     79  66  64 S9        29.89S
DAYTON         NOT AVBL
WRIGHT-PAT AFB MOSUNNY   74  65  72 SW15      29.87S
DAYTON GENERAL NOT AVBL
WILMINGTON     SUNNY     76  63  64 S18       29.87F
$$

OHZ036-037-039>041-045>050-054>059-063>069-073>076-082>088-031700-
  CENTRAL AND SOUTHEAST OHIO

CITY           SKY/WX    TMP DP  RH WIND       PRES   REMARKS
COLUMBUS       MOSUNNY   82  61  48 SW17G24   29.84R
OSU AIRPORT    SUNNY     80  63  55 W17       29.84S
BOLTON FIELD   SUNNY     79  64  61 SW15      29.86R
RICKENBACK AFB NOT AVBL
NEWARK         SUNNY     82  61  48 SW12      29.84R
MARION         CLOUDY    76  63  64 W8        29.85R
LANCASTER      SUNNY     81  62  52 SW14G21   29.85R
ZANESVILLE     MOSUNNY   81  59  47 W9        29.84S
NEW PHILLY     PTSUNNY   77  62  59 W6        29.84R
$$



USA.gov is the U.S. government's official web portal to all federal, state and local government web resources and services.